Temperature
2 3 3 3 2 1 1 2 3 4 4 4 4 4 4 4 3 3 2 2 2 2 2 2 2 2 2 2 2 2 1 1 1 1 1 1 1 1 1 1 1 1 1 1
2 3 2 2 2 2 1 2 2 2 3 3 4 4 3 3 3 2 2 2 2 1 1 1 1 1 1 1 1 1 1 1 1 1 1 1 1 1 1 1 1 1 1 1
2 2 2 2 2 1 1 1 1 2 2 3 2 2 2 2 2 2 1 1 1 1 1 1 1 1 1 1 1 1 1 0 0 0 0 0 0 0 0 0 0 0 0 0
1 2 3 3 2 2 1 1 1 1 1 2 2 2 2 2 1 1 1 1 1 1 1 1 1 1 1 1 0 0 -0 -0 -0 -0 -0 -0 -0 -0 -0 -0 -0 -0 -0 -0
1 2 3 3 1 1 1 0 1 0 1 1 1 1 1 1 1 1 1 0 0 0 0 0 0 0 0 0 0 -0 -1 -1 -1 -1 -1 -1 -1 -1 -1 -1 -1 -1 -1 -1
1 2 3 3 1 1 1 0 1 1 0 1 0 -1 -0 1 0 0 0 0 -0 -0 -0 -0 -0 -0 -0 -0 -1 -1 -1 -1 -1 -1 -1 -1 -1 -1 -1 -1 -1 -1 -2 -2
0 1 2 1 0 1 1 1 1 1 1 0 -1 -1 0 -0 -0 -0 -0 -0 -0 -0 -0 -1 -1 -1 -1 -1 -1 -1 -1 -2 -2 -2 -2 -2 -2 -2 -2 -2 -2 -2 -2 -2
-0 1 1 -0 -1 -1 0 1 1 1 0 0 -0 -0 -1 -1 -1 -1 -1 -1 -1 -1 -1 -1 -1 -1 -1 -1 -2 -2 -2 -2 -2 -2 -2 -2 -2 -3 -3 -3 -3 -3 -3 -3
-0 0 1 0 0 1 1 0 0 0 -0 -0 -1 -1 -1 -1 -1 -1 -1 -1 -2 -1 -1 -1 -1 -1 -1 -2 -2 -2 -2 -2 -2 -2 -2 -3 -3 -3 -3 -3 -3 -4 -3 -3
-1 -1 0 1 1 0 0 0 -0 -0 -1 -1 -1 -1 -2 -2 -2 -2 -2 -2 -2 -2 -2 -2 -2 -2 -2 -2 -2 -2 -2 -3 -3 -3 -3 -3 -3 -4 -4 -4 -4 -4 -4 -4
-2 -2 -0 0 1 0 0 -0 -1 -1 -1 -1 -1 -2 -2 -2 -2 -2 -2 -2 -2 -2 -2 -2 -2 -2 -2 -2 -2 -3 -3 -3 -3 -3 -4 -4 -4 -4 -4 -4 -4 -4 -4 -4
-1 -0 -1 0 1 0 -0 -0 -1 -1 -1 -1 -2 -2 -2 -2 -2 -2 -2 -2 -3 -3 -2 -2 -2 -2 -3 -3 -3 -3 -3 -3 -3 -4 -4 -4 -4 -4 -4 -4 -4 -4 -4 -4
0 1 0 0 0 -0 -0 -1 -1 -1 -1 -2 -2 -2 -2 -2 -3 -3 -3 -3 -3 -3 -3 -3 -3 -3 -3 -3 -3 -3 -3 -3 -4 -4 -4 -4 -4 -4 -5 -4 -4 -4 -4 -4
-0 -0 -1 -1 -1 -1 -1 -1 -1 -2 -2 -2 -2 -2 -3 -3 -3 -3 -3 -3 -3 -3 -3 -3 -3 -3 -3 -3 -3 -3 -4 -4 -4 -4 -4 -4 -5 -5 -5 -5 -5 -5 -4 -4
-1 -1 -1 -1 -1 -1 -1 -2 -2 -2 -2 -2 -2 -3 -3 -3 -3 -3 -3 -4 -4 -3 -3 -3 -3 -3 -3 -4 -4 -4 -4 -4 -4 -4 -4 -5 -5 -5 -5 -5 -5 -5 -5 -5
-1 -1 -1 -2 -2 -2 -2 -2 -3 -3 -3 -3 -3 -3 -3 -3 -3 -3 -4 -4 -4 -4 -4 -4 -4 -4 -4 -4 -4 -4 -4 -4 -5 -5 -5 -5 -5 -5 -5 -5 -5 -5 -5 -5
-2 -2 -2 -2 -2 -2 -2 -3 -3 -3 -3 -3 -3 -3 -3 -3 -3 -4 -4 -4 -4 -4 -4 -4 -4 -4 -4 -4 -4 -4 -5 -5 -5 -5 -5 -5 -5 -5 -5 -5 -5 -5 -5 -5
-2 -2 -2 -2 -2 -3 -3 -3 -3 -3 -3 -3 -4 -4 -4 -4 -4 -4 -4 -4 -4 -4 -4 -4 -4 -4 -4 -4 -5 -5 -5 -5 -5 -5 -5 -5 -5 -6 -6 -6 -6 -5 -5 -5
-2 -2 -2 -3 -3 -3 -3 -3 -3 -3 -3 -4 -4 -4 -4 -4 -4 -4 -4 -4 -4 -4 -4 -5 -5 -5 -5 -5 -5 -5 -5 -5 -5 -5 -6 -6 -6 -5 -6 -6 -6 -6 -5 -5
-2 -2 -2 -3 -3 -3 -3 -3 -3 -3 -3 -4 -4 -4 -4 -4 -4 -4 -4 -4 -5 -5 -5 -5 -5 -5 -5 -5 -5 -5 -5 -6 -6 -6 -6 -6 -6 -5 -6 -6 -6 -6 -6 -6
-2 -2 -3 -3 -3 -3 -3 -3 -3 -3 -4 -4 -4 -4 -4 -4 -5 -5 -5 -5 -5 -5 -5 -5 -5 -5 -5 -5 -5 -6 -6 -6 -6 -6 -6 -6 -6 -6 -6 -6 -6 -6 -6 -6
-2 -3 -3 -3 -3 -3 -3 -4 -4 -4 -4 -4 -4 -4 -5 -5 -5 -5 -5 -5 -5 -5 -5 -5 -6 -6 -6 -6 -6 -6 -6 -6 -6 -6 -6 -6 -6 -6 -6 -6 -6 -6 -6 -6
-3 -3 -3 -3 -3 -3 -4 -4 -4 -4 -4 -4 -4 -5 -5 -5 -5 -5 -5 -5 -5 -6 -6 -6 -6 -6 -6 -6 -6 -6 -6 -6 -6 -6 -6 -6 -6 -6 -6 -6 -6 -6 -6 -6
-3 -3 -3 -3 -4 -4 -4 -4 -4 -4 -4 -5 -5 -5 -5 -5 -5 -5 -6 -6 -6 -6 -6 -6 -6 -6 -6 -6 -6 -6 -6 -6 -6 -7 -6 -6 -6 -6 -6 -6 -6 -6 -6 -6
-3 -3 -3 -4 -4 -4 -4 -4 -4 -4 -5 -5 -5 -5 -5 -5 -5 -6 -6 -6 -6 -6 -6 -6 -6 -6 -6 -6 -6 -6 -7 -7 -7 -7 -7 -6 -6 -6 -6 -6 -6 -6 -6 -6
-3 -3 -4 -4 -4 -4 -4 -4 -5 -5 -5 -5 -5 -5 -5 -6 -6 -6 -6 -6 -6 -6 -6 -6 -6 -7 -7 -7 -7 -7 -7 -7 -7 -7 -7 -7 -7 -6 -6 -6 -6 -6 -6 -6
-4 -4 -4 -4 -4 -4 -4 -5 -5 -5 -5 -5 -5 -5 -6 -6 -6 -6 -6 -6 -6 -6 -6 -6 -7 -7 -7 -7 -7 -6 -7 -7 -7 -7 -7 -7 -7 -7 -6 -6 -6 -6 -6 -6
Wind_Speed
6 6 5 5 5 6 8 8 7 7 8 8 6 6 6 5 6 6 7 7 7 7 6 6 5 3 2 2 1 0 0 1 1 1 0 0 0 0 0 1 1 0 1 1
5 5 4 5 6 7 8 7 8 10 11 6 6 5 5 6 6 7 8 7 7 7 7 6 5 4 3 2 1 0 0 1 0 0 0 0 0 1 1 0 0 1 1 1
3 2 4 5 6 7 5 5 5 7 7 6 7 7 6 6 6 6 7 6 6 6 6 5 5 4 4 2 1 1 1 1 1 1 1 1 1 1 1 1 1 1 1 1
2 3 4 3 2 2 4 4 5 6 7 7 8 7 5 5 5 6 6 6 6 5 5 5 5 4 3 3 2 2 1 1 2 2 1 1 1 1 1 1 1 1 1 1
2 3 5 2 0 1 2 4 3 5 8 8 7 6 4 5 6 5 5 5 4 4 4 4 4 4 3 3 3 2 2 2 2 2 2 2 2 1 1 1 1 1 2 2
2 3 4 2 1 1 1 3 3 3 5 6 5 4 4 6 7 6 6 5 4 4 4 4 3 3 4 3 3 3 2 2 2 2 1 1 1 1 1 1 1 1 2 2
4 4 4 1 1 2 1 4 4 2 3 3 2 4 5 6 6 5 5 6 5 4 4 3 3 4 3 3 3 2 3 3 3 2 1 1 1 1 2 2 2 2 2 1
3 4 5 1 3 3 3 2 3 3 3 3 4 5 5 5 5 5 5 6 5 4 4 4 4 3 3 3 3 3 3 3 3 2 2 2 2 2 2 1 1 2 2 2
5 5 1 4 3 2 0 2 3 3 4 4 4 5 5 5 5 5 5 5 4 4 4 4 4 3 3 3 3 4 4 3 3 3 3 2 2 1 1 1 1 1 1 1
4 5 3 3 3 3 3 3 4 4 4 4 4 5 5 5 5 5 4 4 4 4 4 4 4 4 3 3 3 3 3 3 3 3 3 3 2 1 1 1 1 1 1 1
5 5 4 3 4 4 3 3 3 4 3 3 3 4 4 4 4 4 4 4 4 3 3 4 4 4 3 3 3 3 2 2 3 2 2 3 2 2 1 1 0 0 0 0
5 3 3 3 1 2 2 3 3 3 3 3 3 3 4 4 3 3 3 3 3 3 3 3 3 3 3 3 2 2 2 2 2 2 2 2 2 2 4 2 3 3 2 2
4 2 2 3 2 1 2 2 2 2 2 3 3 3 3 3 3 3 3 3 3 3 3 3 3 3 3 2 2 2 2 2 2 2 2 2 1 1 2 3 4 3 3 3
2 2 3 3 2 2 1 2 2 2 2 2 2 3 2 3 3 3 3 3 3 2 3 3 3 3 3 2 2 2 2 2 2 1 1 1 1 1 1 1 2 2 2 3
3 3 3 2 2 2 1 1 2 3 3 3 2 2 2 3 3 3 3 3 2 2 2 3 3 4 3 2 2 2 2 1 1 1 2 2 2 1 1 1 1 1 2 2
2 2 2 2 3 2 1 1 2 3 3 3 3 3 3 2 3 3 3 2 2 2 2 3 3 3 3 2 2 2 2 3 3 2 2 2 2 2 1 1 1 1 1 2
2 2 2 3 3 3 2 2 2 2 2 3 3 3 3 2 3 3 3 3 2 2 2 2 3 3 2 2 1 1 1 2 3 2 1 1 1 1 1 1 1 1 1 2
4 3 2 2 2 2 2 2 1 2 2 2 2 2 2 2 3 3 3 3 3 3 2 2 2 3 2 2 1 1 1 1 1 1 1 1 1 1 1 1 1 1 1 2
2 1 1 1 1 1 1 2 1 1 2 1 2 2 2 3 3 3 3 2 2 3 4 3 4 3 2 2 2 1 1 1 1 1 1 2 2 1 1 1 1 1 2 2
1 1 1 0 0 0 1 1 1 1 1 1 1 2 2 3 3 2 2 2 2 2 2 2 2 2 2 2 2 1 1 1 1 1 1 1 1 1 1 1 1 1 1 1
2 1 1 1 1 1 1 1 1 1 2 1 1 2 2 3 3 2 1 2 3 2 2 3 2 2 2 2 2 1 1 1 1 1 1 1 1 1 1 1 1 1 1 1
2 2 1 1 1 1 1 1 1 1 1 2 2 2 2 2 3 2 2 2 2 2 2 1 1 2 3 2 1 1 1 1 1 1 1 1 1 1 1 1 1 1 1 1
2 2 2 1 1 1 1 1 1 1 2 2 2 2 2 2 2 2 3 2 1 2 2 1 2 3 3 2 1 1 1 1 1 1 1 1 1 1 1 1 1 1 1 1
2 2 2 1 1 1 1 2 1 1 2 2 2 2 2 2 2 1 1 1 2 2 2 2 3 3 3 1 1 1 1 1 1 1 1 1 1 1 1 1 1 2 1 1
2 2 2 1 1 2 2 1 1 1 1 1 1 1 1 1 1 2 2 1 2 2 1 2 3 3 2 1 1 1 1 1 1 1 1 1 1 1 1 1 1 1 1 1
2 2 2 2 2 2 1 1 1 1 1 1 1 1 1 1 1 1 1 1 1 2 2 1 1 2 1 1 1 1 1 1 1 1 1 1 0 1 1 1 1 1 1 1
2 1 1 1 1 2 1 1 2 2 2 1 1 1 1 1 1 1 1 1 1 1 1 1 1 1 1 1 1 1 1 1 1 1 1 1 1 0 1 1 1 1 1 1
Wind_Direction
275 278 273 255 239 216 220 230 238 265 275 285 307 314 315 326 329 328 327 329 331 329 329 332 339 333 324 312 320 353 170 208 222 229 164 158 175 146 333 275 294 343 25 343
281 262 264 266 255 231 232 244 257 279 285 295 317 324 327 327 326 324 323 325 329 331 331 333 338 341 341 341 344 85 164 242 226 133 100 149 109 77 36 9 25 30 35 0
278 312 313 272 243 216 217 222 223 247 264 316 324 325 321 321 322 319 320 324 325 325 326 332 335 339 339 343 10 75 85 46 40 80 74 43 50 53 15 359 17 40 62 60
285 317 257 241 22 175 208 247 245 270 296 319 317 315 316 325 332 326 326 326 328 334 339 341 344 348 359 14 32 50 51 40 36 62 56 29 51 48 18 16 22 95 84 71
250 269 270 277 339 81 208 283 263 267 293 312 327 329 319 343 343 331 329 328 327 328 331 340 345 357 17 23 34 35 31 31 34 63 56 42 41 35 39 42 31 61 78 74
235 254 261 283 13 38 106 286 322 303 300 319 351 337 310 343 343 339 342 342 340 341 346 346 347 19 30 22 33 29 20 23 26 51 57 50 43 38 36 33 46 57 66 66
231 245 266 316 19 93 133 278 331 327 313 325 299 267 300 330 335 339 346 347 351 353 354 352 5 34 33 26 23 20 25 30 27 31 43 50 60 53 35 37 53 61 63 52
200 224 257 124 119 175 237 313 330 329 327 313 301 306 321 330 335 342 346 346 350 354 354 358 16 39 33 20 14 29 35 34 27 19 22 35 56 49 34 38 74 76 65 40
204 218 249 172 199 230 301 303 310 317 319 316 311 313 321 328 335 339 340 345 353 356 2 7 16 38 39 12 22 33 36 30 25 23 30 35 43 56 40 33 68 71 68 50
266 267 259 236 265 294 293 287 304 312 311 314 309 315 321 327 332 335 344 350 355 5 10 3 11 21 27 14 25 38 32 21 20 25 26 23 19 18 42 31 37 47 48 34
254 275 294 269 252 269 288 306 316 323 319 313 313 316 322 328 333 336 345 351 360 8 5 356 5 12 10 18 39 40 25 17 16 22 28 27 22 18 10 14 359 2 10 32
235 239 228 271 299 291 291 292 294 309 322 327 323 317 325 326 330 336 341 350 359 0 356 352 3 4 2 11 22 33 20 14 16 23 25 26 31 28 25 30 26 20 17 4
252 288 278 288 305 340 306 305 311 317 310 316 328 327 329 330 336 344 344 348 346 342 343 347 355 355 353 4 10 17 16 6 9 11 8 6 11 32 26 20 22 27 26 19
257 300 289 291 294 309 317 328 346 356 341 329 327 335 339 337 337 335 328 328 334 343 341 342 348 347 354 14 21 14 8 1 359 1 353 350 359 15 26 18 9 13 11 15
253 250 257 296 321 335 347 5 358 338 336 335 340 336 332 327 322 323 326 336 347 349 343 345 349 345 356 16 20 9 2 7 9 1 352 348 354 9 18 20 20 5 2 5
255 254 263 277 282 299 329 336 309 309 319 322 328 324 316 314 319 326 335 342 341 330 328 337 336 336 355 13 21 16 17 11 6 5 4 4 9 16 17 19 16 10 4 357
190 240 258 275 279 287 283 276 274 287 304 311 313 319 332 341 336 333 334 333 321 309 315 326 324 338 360 14 28 24 18 12 8 9 13 5 3 5 5 5 0 1 346 338
214 222 221 231 252 270 287 296 295 292 294 300 319 334 338 331 314 313 321 328 335 336 336 335 342 355 2 14 27 26 17 12 11 9 5 2 352 350 355 357 1 357 343 345
216 224 242 257 262 252 265 280 289 293 305 319 322 314 308 303 299 304 318 331 335 332 334 342 355 4 358 8 17 36 26 8 355 357 1 350 352 355 358 5 4 359 350 3
191 201 211 269 346 240 260 280 293 307 310 311 307 310 314 314 316 319 327 314 298 293 312 345 360 354 346 358 14 32 25 10 1 356 356 353 344 344 344 353 5 358 359 359
194 190 195 221 278 276 249 247 253 284 302 303 282 281 288 300 308 309 315 311 314 326 344 350 356 338 339 358 15 29 22 7 358 348 344 343 346 346 345 342 346 352 357 351
198 198 210 224 250 290 296 273 250 268 293 299 297 294 299 307 313 319 297 268 296 341 359 348 338 342 356 7 26 26 17 355 338 334 337 328 326 328 334 339 342 341 346 341
196 199 205 217 237 266 295 286 261 250 257 272 281 287 288 289 291 295 307 315 329 346 356 344 342 348 358 13 21 18 4 339 320 314 312 310 308 314 322 330 330 325 323 317
185 194 204 197 172 200 271 273 264 259 256 270 273 274 278 301 317 313 309 338 357 354 354 341 347 351 356 9 11 357 335 318 308 308 314 315 314 316 320 323 323 324 322 315
185 186 179 174 196 231 245 247 263 275 279 284 293 298 291 282 283 315 341 340 340 355 348 335 341 345 348 339 344 334 320 308 307 313 310 310 310 322 326 323 321 323 319 311
185 202 214 218 220 224 217 214 246 257 255 279 298 305 321 333 340 341 342 342 346 349 351 343 336 338 340 336 337 344 341 325 325 332 331 335 5 4 343 339 333 327 325 324
180 189 206 232 224 209 203 211 229 243 240 241 267 278 300 325 355 2 3 10 4 351 346 345 345 339 338 337 341 350 359 359 359 5 9 15 31 24 349 337 334 339 337 333
Height
1482 1479 1479 1479 1480 1482 1483 1478 1477 1468 1464 1459 1459 1458 1456 1454 1452 1450 1447 1444 1441 1438 1435 1432 1430 1428 1427 1426 1426 1426 1426 1426 1426 1426 1426 1426 1426 1426 1426 1427 1427 1428 1428 1428
1482 1476 1477 1478 1476 1476 1477 1476 1474 1471 1466 1459 1458 1457 1455 1453 1451 1449 1446 1443 1440 1437 1434 1431 1429 1427 1426 1424 1424 1424 1424 1424 1424 1424 1424 1424 1424 1424 1424 1424 1424 1425 1425 1426
1481 1477 1477 1477 1471 1472 1473 1471 1471 1470 1464 1459 1457 1456 1455 1453 1451 1448 1445 1442 1439 1436 1433 1431 1428 1426 1424 1423 1422 1422 1422 1422 1422 1422 1422 1422 1422 1422 1422 1422 1422 1423 1423 1424
1484 1482 1478 1468 1465 1465 1468 1468 1467 1464 1462 1460 1459 1455 1453 1452 1450 1447 1444 1441 1438 1435 1432 1430 1428 1426 1424 1423 1421 1421 1421 1421 1420 1420 1420 1421 1421 1420 1420 1420 1421 1421 1422 1422
1485 1481 1471 1467 1467 1467 1469 1468 1464 1464 1461 1459 1457 1454 1452 1450 1448 1446 1443 1440 1437 1434 1431 1429 1427 1425 1423 1422 1421 1420 1420 1420 1420 1419 1419 1419 1419 1419 1419 1419 1420 1420 1421 1421
1484 1481 1473 1468 1467 1465 1469 1468 1462 1461 1460 1459 1457 1457 1454 1450 1447 1445 1442 1439 1436 1433 1431 1428 1427 1425 1423 1421 1420 1420 1420 1419 1419 1419 1419 1419 1419 1419 1419 1419 1419 1419 1420 1421
1484 1481 1471 1469 1466 1466 1471 1468 1463 1461 1460 1459 1458 1457 1454 1450 1447 1444 1441 1438 1435 1432 1430 1428 1427 1425 1423 1421 1421 1421 1420 1420 1419 1419 1419 1419 1419 1419 1419 1419 1419 1419 1420 1421
1482 1480 1475 1468 1467 1469 1467 1463 1462 1460 1459 1458 1456 1453 1451 1449 1446 1443 1440 1437 1434 1432 1430 1428 1427 1425 1423 1422 1422 1421 1420 1420 1419 1419 1419 1419 1419 1418 1419 1419 1419 1419 1420 1420
1475 1473 1466 1465 1464 1464 1463 1462 1460 1459 1457 1456 1454 1451 1449 1447 1444 1442 1439 1437 1434 1432 1430 1429 1427 1426 1424 1423 1422 1421 1420 1419 1419 1419 1419 1419 1419 1418 1419 1419 1419 1419 1419 1419
1471 1465 1463 1463 1462 1462 1461 1460 1459 1457 1456 1454 1452 1450 1448 1446 1443 1441 1439 1437 1435 1432 1430 1429 1428 1426 1425 1424 1423 1421 1420 1420 1420 1419 1419 1419 1419 1419 1419 1419 1419 1418 1418 1418
1469 1464 1461 1460 1459 1459 1458 1457 1456 1455 1454 1452 1450 1448 1446 1444 1442 1440 1438 1436 1435 1433 1431 1430 1428 1427 1426 1425 1424 1422 1421 1421 1420 1420 1419 1419 1419 1419 1419 1419 1420 1419 1419 1419
1463 1459 1459 1458 1457 1457 1456 1455 1454 1453 1451 1450 1448 1447 1445 1443 1441 1439 1438 1436 1435 1433 1431 1430 1429 1427 1427 1426 1425 1423 1422 1421 1420 1420 1419 1419 1418 1418 1419 1419 1419 1419 1419 1419
1457 1456 1456 1455 1455 1454 1453 1453 1452 1450 1449 1448 1446 1445 1443 1442 1440 1439 1437 1436 1434 1433 1432 1430 1429 1428 1427 1426 1425 1423 1422 1421 1421 1420 1419 1419 1418 1418 1418 1418 1419 1419 1419 1419
1455 1455 1454 1453 1453 1452 1451 1450 1449 1448 1447 1446 1445 1443 1442 1441 1439 1438 1437 1435 1434 1433 1431 1430 1429 1428 1427 1426 1425 1423 1422 1421 1421 1420 1419 1418 1418 1418 1417 1417 1417 1417 1418 1418
1452 1452 1451 1451 1450 1449 1449 1448 1447 1446 1445 1444 1443 1442 1441 1439 1438 1437 1436 1435 1433 1432 1431 1430 1428 1428 1427 1425 1424 1423 1422 1422 1421 1420 1419 1418 1417 1417 1417 1417 1417 1416 1416 1417
1449 1449 1448 1448 1447 1447 1446 1446 1445 1444 1443 1442 1441 1440 1440 1439 1437 1436 1435 1434 1433 1431 1430 1429 1428 1427 1426 1425 1424 1423 1422 1421 1420 1419 1418 1418 1417 1417 1416 1416 1416 1416 1416 1416
1446 1445 1445 1445 1445 1445 1444 1444 1444 1443 1442 1441 1440 1440 1439 1437 1436 1435 1434 1433 1432 1431 1430 1429 1428 1427 1425 1424 1423 1422 1422 1421 1420 1419 1418 1417 1417 1416 1416 1416 1416 1415 1415 1416
1442 1443 1443 1443 1443 1443 1443 1443 1442 1442 1441 1440 1439 1438 1438 1436 1435 1434 1433 1432 1431 1430 1429 1428 1427 1426 1425 1424 1423 1422 1421 1420 1419 1418 1418 1417 1417 1416 1416 1415 1415 1415 1415 1415
1439 1440 1441 1441 1441 1441 1441 1441 1440 1440 1440 1439 1438 1437 1436 1435 1434 1433 1432 1431 1430 1428 1428 1427 1426 1425 1424 1423 1422 1421 1421 1420 1419 1418 1417 1417 1416 1415 1415 1415 1415 1415 1415 1415
1437 1438 1439 1439 1440 1440 1439 1439 1439 1438 1438 1437 1437 1436 1435 1434 1433 1432 1431 1430 1429 1428 1427 1426 1425 1424 1423 1423 1422 1421 1420 1419 1418 1418 1417 1416 1415 1415 1415 1414 1414 1414 1414 1414
1436 1437 1437 1437 1438 1438 1438 1438 1437 1437 1436 1435 1435 1434 1433 1433 1432 1431 1429 1428 1428 1427 1426 1425 1424 1423 1422 1422 1421 1420 1420 1419 1418 1417 1416 1416 1415 1414 1414 1414 1414 1414 1414 1414
1434 1435 1435 1436 1436 1436 1436 1436 1436 1435 1434 1434 1433 1433 1432 1431 1430 1429 1428 1428 1427 1426 1425 1424 1423 1422 1422 1421 1420 1420 1419 1418 1417 1417 1416 1415 1414 1414 1414 1414 1413 1413 1413 1413
1433 1433 1433 1434 1434 1434 1434 1434 1434 1433 1433 1432 1432 1431 1430 1429 1429 1428 1427 1427 1426 1425 1424 1423 1422 1422 1421 1420 1419 1419 1418 1417 1416 1416 1415 1414 1414 1413 1413 1413 1413 1413 1413 1412
1431 1432 1432 1432 1432 1432 1432 1432 1432 1432 1431 1431 1430 1430 1429 1428 1427 1427 1426 1425 1424 1424 1423 1422 1421 1420 1420 1419 1418 1418 1417 1416 1415 1415 1414 1413 1413 1413 1413 1412 1412 1412 1412 1412
1430 1430 1430 1430 1430 1430 1431 1431 1430 1430 1430 1429 1429 1429 1428 1427 1426 1426 1425 1424 1423 1422 1421 1421 1420 1419 1418 1418 1417 1417 1416 1415 1415 1414 1413 1413 1412 1412 1412 1412 1412 1412 1411 1411
1428 1428 1428 1428 1429 1429 1429 1429 1429 1428 1428 1427 1427 1427 1427 1426 1425 1425 1424 1423 1422 1421 1421 1420 1419 1418 1418 1417 1417 1416 1415 1415 1414 1414 1413 1412 1412 1412 1412 1411 1411 1411 1411 1411
1426 1426 1426 1426 1427 1427 1427 1427 1427 1427 1426 1426 1425 1425 1425 1425 1424 1424 1423 1422 1421 1421 1420 1419 1419 1418 1417 1416 1416 1415 1415 1414 1414 1413 1412 1412 1412 1411 1411 1411 1411 1411 1410 1410